Tracking 19634 objects as of 22-May-2019
HD Live streaming from Space Station
objects crossing your sky now

CZ-4 DEB

Track CZ-4 DEB now!
10-day predictions


NORAD ID: 26449
Int'l Code: 1999-057KW
Perigee: 690.2 km
Apogee: 816.1 km
Inclination: 98.7 °
Period: 99.7 minutes
Semi major axis: 7124 km
RCS: 0.044 m2 (small)
Launch date: October 14, 1999
Source: People's Republic of China (PRC)
Launch site: Taiyaun Space Center, China (TSC)

Note: This is SATELLITE DEBRIS
aabbcc
Your satellite tracking list
Your tracking list is empty




NASA's NSSDC Master Catalog

Two Line Element Set (TLE):
1 26449U 99057KW  19141.95815198 +.00000156 +00000-0 +57248-4 0  9999
2 26449 098.6512 123.4295 0088352 102.9704 324.1107 14.43797238005217
Source of the keplerian elements: AFSPC